Location: Rumah Dana
(3.1167°N, 113.0167°E)
Time: 03:56:26
(UTC+00:00)

COSMOS 2406 - Pass Details

Date: 20 January 2026
Orbit: 843 x 861 km, 71.0° (Epoch: 10 February)

Event Time Altitude Azimuth Distance (km) Brightness Sun altitude
Rises 11:44:19 0° 199° (SSW) 3,396 6.9 -16.4°
Reaches altitude 10° 11:46:46 10° 200° (SSW) 2,459 6.2 -17.0°
Maximum altitude 11:52:24 76° 285° (WNW) 868 3.3 -18.3°
Enters shadow 11:57:42 12° 10° (N) 2,332 5.2 -19.5°
